Weather History for Burbank, CA

Change the Weather History Date:

Thursday, January 16, 2014

  Actual Average Record
Temperature  
Mean Temperature 72 °F 55 °F  
Max Temperature 90 °F 68 °F 90 °F (2014)
Min Temperature 53 °F 42 °F 32 °F (2007)
Degree Days  
Heating Degree Days 0 10  
Month to date heating degree days 46 166  
Since 1 July heating degree days 344 733  
Cooling Degree Days 7 0  
Month to date cooling degree days 19 0  
Year to date cooling degree days 19 0  
Growing Degree Days 22 (Base 50)    
Moisture  
Dew Point 10 °F    
Average Humidity 13    
Maximum Humidity 24    
Minimum Humidity 2    
Precipitation  
Precipitation 0.00 in 0.12 in 1.61 in (1979)
Month to date precipitation 0.00 1.79  
Year to date precipitation 0.00 1.79  
Since 1 July precipitation 0.43 6.55  
Sea Level Pressure  
Sea Level Pressure 30.06 in    
Wind  
Wind Speed 3 mph (North)    
Max Wind Speed 13 mph    
Max Gust Speed 16 mph    
Visibility 10 miles    
Events      
T = Trace of Precipitation, MM = Missing Value Source: NWS Daily Summary

Daily Weather History Graph

Daily Weather History Graph

Search for Another Location

Airport:

Trip Planner

Search our weather history database for the weather conditions in past years. The results will help you decide how hot, cold, wet, or windy it might be!

Date:

Astronomy

Jan. 16, 2014 Rise Set
Actual Time 6:58 AM PST 5:08 PM PST
Civil Twilight 6:31 AM PST 5:35 PM PST
Nautical Twilight 6:00 AM PST 6:05 PM PST
Astronomical Twilight 5:30 AM PST 6:35 PM PST
Moon 5:59 PM PST (1/16) 6:59 AM PST (1/16)
Length of Visible Light 11h 03m
Length of Day
10h 09m
Full, 100% of the Moon is Illuminated
Jan 16
Full
Jan 23
Last Quarter
Jan 30
New
Feb 6
First Quarter
Feb 14
Full

Hourly Weather History & Observations

Time (PST) Temp. Dew Point Humidity Pressure Visibility Wind Dir Wind Speed Gust Speed Precip Events Conditions
12:53 AM 55.9 °F 18.0 °F 23% 30.09 in 10.0 mi North 5.8 mph - N/A   Clear
1:53 AM 57.0 °F 16.0 °F 20% 30.09 in 10.0 mi Calm Calm - N/A   Clear
2:53 AM 55.9 °F 16.0 °F 21% 30.08 in 10.0 mi NNW 3.5 mph - N/A   Clear
3:53 AM 54.0 °F 16.0 °F 22% 30.07 in 10.0 mi Calm Calm - N/A   Clear
4:53 AM 55.0 °F 16.0 °F 22% 30.07 in 10.0 mi North 4.6 mph - N/A   Clear
5:53 AM 54.0 °F 17.1 °F 23% 30.09 in 10.0 mi Calm Calm - N/A   Clear
6:53 AM 57.9 °F 14.0 °F 18% 30.09 in 10.0 mi Variable 3.5 mph - N/A   Clear
7:53 AM 61.0 °F 16.0 °F 17% 30.10 in 10.0 mi Calm Calm - N/A   Clear
8:53 AM 66.9 °F 17.1 °F 15% 30.12 in 10.0 mi Calm Calm - N/A   Clear
9:53 AM 73.0 °F 16.0 °F 11% 30.12 in 10.0 mi Variable 3.5 mph - N/A   Clear
10:53 AM 81.0 °F 17.1 °F 9% 30.09 in 10.0 mi Variable 4.6 mph - N/A   Clear
11:53 AM 82.9 °F 12.9 °F 7% 30.06 in 10.0 mi SSE 4.6 mph - N/A   Clear
12:53 PM 87.1 °F 7.0 °F 5% 30.03 in 10.0 mi Calm Calm - N/A   Clear
1:53 PM 89.1 °F -2.9 °F 4% 30.01 in 10.0 mi Calm Calm - N/A   Clear
2:53 PM 88.0 °F -7.1 °F 4% 30.01 in 10.0 mi NE 6.9 mph - N/A   Clear
3:53 PM 87.1 °F -4.0 °F 4% 30.01 in 10.0 mi NE 10.4 mph - N/A   Clear
4:53 PM 82.9 °F -0.9 °F 4% 30.03 in 10.0 mi Variable 3.5 mph - N/A   Clear
5:53 PM 81.0 °F -2.0 °F 4% 30.04 in 10.0 mi SE 3.5 mph - N/A   Clear
6:53 PM 79.0 °F -0.9 °F 4% 30.04 in 10.0 mi Variable 4.6 mph - N/A   Clear
7:53 PM 78.1 °F 1.9 °F 5% 30.04 in 10.0 mi Calm Calm - N/A   Clear
8:53 PM 73.9 °F 6.1 °F 7% 30.05 in 10.0 mi West 3.5 mph - N/A   Clear
9:53 PM 72.0 °F 8.1 °F 8% 30.05 in 10.0 mi West 3.5 mph - N/A   Clear
10:53 PM 64.9 °F 15.1 °F 15% 30.05 in 10.0 mi Calm Calm - N/A   Clear
11:53 PM 61.0 °F 18.0 °F 19% 30.05 in 10.0 mi NNE 3.5 mph - N/A   Clear